TimeCST,TemperatureF,Dew PointF,Humidity,Sea Level PressureIn,VisibilityMPH,Wind Direction,Wind SpeedMPH,Gust SpeedMPH,PrecipitationIn,Events,Conditions,WindDirDegrees,DateUTC
12:15 AM,50.0,33.8,54,30.10,10.0,NNE,16.1,23.0,N/A,,Clear,30,2013-02-15 06:15:00
12:35 AM,50.0,35.6,58,30.11,10.0,NE,15.0,27.6,N/A,,Clear,40,2013-02-15 06:35:00
12:55 AM,50.0,35.6,58,30.12,10.0,NE,18.4,26.5,N/A,,Clear,40,2013-02-15 06:55:00
1:15 AM,48.2,33.8,58,30.13,10.0,NE,16.1,26.5,N/A,,Clear,40,2013-02-15 07:15:00
2:35 AM,48.2,32.0,54,30.17,10.0,NE,16.1,24.2,N/A,,Clear,40,2013-02-15 08:35:00
2:55 AM,48.2,32.0,54,30.18,10.0,NE,19.6,23.0,N/A,,Clear,40,2013-02-15 08:55:00
3:15 AM,46.4,32.0,57,30.19,10.0,NE,13.8,21.9,N/A,,Scattered Clouds,40,2013-02-15 09:15:00
3:35 AM,46.4,32.0,57,30.20,10.0,NNE,13.8,25.3,N/A,,Mostly Cloudy,30,2013-02-15 09:35:00
3:55 AM,46.4,32.0,57,30.20,10.0,NNE,12.7,21.9,N/A,,Mostly Cloudy,30,2013-02-15 09:55:00
4:15 AM,46.4,32.0,57,30.21,10.0,NNE,10.4,18.4,N/A,,Mostly Cloudy,30,2013-02-15 10:15:00
4:55 AM,44.6,33.8,66,30.23,10.0,North,11.5,-,N/A,,Overcast,360,2013-02-15 10:55:00
5:35 AM,44.6,33.8,66,30.25,10.0,NNE,11.5,20.7,N/A,,Overcast,20,2013-02-15 11:35:00
6:15 AM,44.6,33.8,66,30.27,10.0,NNE,16.1,20.7,N/A,,Overcast,30,2013-02-15 12:15:00
6:55 AM,44.6,32.0,61,30.29,10.0,NE,15.0,21.9,N/A,,Overcast,40,2013-02-15 12:55:00
7:15 AM,44.6,32.0,61,30.30,10.0,NE,16.1,23.0,N/A,,Overcast,40,2013-02-15 13:15:00
8:15 AM,44.6,32.0,61,30.33,10.0,NE,15.0,19.6,N/A,,Overcast,40,2013-02-15 14:15:00
9:15 AM,44.6,33.8,66,30.36,10.0,NNE,13.8,-,N/A,,Overcast,20,2013-02-15 15:15:00
9:55 AM,44.6,30.2,57,30.37,10.0,NNE,13.8,19.6,N/A,,Overcast,30,2013-02-15 15:55:00
10:15 AM,44.6,30.2,57,30.37,10.0,NNE,15.0,-,N/A,,Overcast,20,2013-02-15 16:15:00
10:55 AM,44.6,24.8,46,30.39,10.0,NNE,11.5,18.4,N/A,,Overcast,20,2013-02-15 16:55:00
11:15 AM,44.6,23.0,43,30.39,10.0,North,11.5,17.3,N/A,,Overcast,10,2013-02-15 17:15:00
11:35 AM,44.6,19.4,37,30.39,10.0,NNE,11.5,17.3,N/A,,Overcast,30,2013-02-15 17:35:00
12:55 PM,46.4,19.4,34,30.37,10.0,NE,6.9,19.6,N/A,,Overcast,50,2013-02-15 18:55:00
2:35 PM,51.8,17.6,26,30.32,10.0,North,16.1,23.0,N/A,,Clear,360,2013-02-15 20:35:00
3:15 PM,50.0,12.2,22,30.32,10.0,NNE,13.8,23.0,N/A,,Clear,30,2013-02-15 21:15:00
3:55 PM,48.2,14.0,25,30.32,10.0,NNE,12.7,18.4,N/A,,Overcast,20,2013-02-15 21:55:00
5:15 PM,46.4,23.0,40,30.34,10.0,North,8.1,-,N/A,,Clear,10,2013-02-15 23:15:00
5:55 PM,44.6,17.6,34,30.35,10.0,North,10.4,-,N/A,,Mostly Cloudy,10,2013-02-15 23:55:00
6:15 PM,44.6,14.0,29,30.35,10.0,NNE,8.1,-,N/A,,Mostly Cloudy,20,2013-02-16 00:15:00
6:55 PM,42.8,17.6,36,30.37,10.0,NNE,3.5,-,N/A,,Clear,20,2013-02-16 00:55:00
7:15 PM,42.8,17.6,36,30.37,10.0,North,4.6,-,N/A,,Clear,10,2013-02-16 01:15:00
7:55 PM,41.0,17.6,39,30.39,10.0,North,3.5,-,N/A,,Clear,350,2013-02-16 01:55:00
8:15 PM,41.0,19.4,42,30.39,10.0,NNE,4.6,-,N/A,,Clear,20,2013-02-16 02:15:00
8:35 PM,41.0,19.4,42,30.39,10.0,Calm,Calm,-,N/A,,Clear,0,2013-02-16 02:35:00
8:55 PM,37.4,21.2,52,30.39,10.0,Calm,Calm,-,N/A,,Clear,0,2013-02-16 02:55:00
9:15 PM,35.6,23.0,60,30.40,10.0,Calm,Calm,-,N/A,,Clear,0,2013-02-16 03:15:00
9:35 PM,35.6,23.0,60,30.40,10.0,Calm,Calm,-,N/A,,Clear,0,2013-02-16 03:35:00
9:55 PM,35.6,23.0,60,30.40,10.0,Calm,Calm,-,N/A,,Clear,0,2013-02-16 03:55:00
10:15 PM,35.6,21.2,56,30.39,10.0,Calm,Calm,-,N/A,,Clear,0,2013-02-16 04:15:00
10:35 PM,33.8,21.2,60,30.38,10.0,SSW,4.6,-,N/A,,Clear,200,2013-02-16 04:35:00
10:55 PM,33.8,23.0,65,30.38,10.0,Calm,Calm,-,N/A,,Clear,0,2013-02-16 04:55:00
11:15 PM,33.8,21.2,60,30.38,10.0,Calm,Calm,-,N/A,,Clear,0,2013-02-16 05:15:00
11:35 PM,32.0,23.0,69,30.39,10.0,Calm,Calm,-,N/A,,Clear,0,2013-02-16 05:35:00
11:55 PM,32.0,23.0,69,30.40,10.0,SW,3.5,-,N/A,,Clear,220,2013-02-16 05:55:00